Regional Weather Roundup
Issued by NWS

Home | Current Version | Previous Version | Graphics & Text | Print | Product List | Glossary On
Versions: 1 2 3 4 5 6 7 8 9 10 11 12 13 14 15 16 17 18 19 20 21 22 23 24 25 26 27 28 29 30 31 32 33 34 35 36 37 38 39 40 41 42 43 44 45 46 47 48 49 50
000
ASUS45 KSLC 281010
RWRUT

UTAH REGIONAL WEATHER ROUNDUP
NATIONAL WEATHER SERVICE SALT LAKE CITY UT
400 AM MDT THU JUL 28 2016

UTZ001>011-023>025-281100-

NORTHERN UTAH

CITY           SKY/WX    TMP DP  RH WIND       PRES   REMARKS
BRIGHAM CITY     N/A     66  39  37 NW5       30.05R
HILL AFB       CLEAR     71  33  24 E17       30.08R
LOGAN          CLEAR     57  50  77 SW3       30.08R
OGDEN          CLEAR     71  34  25 S7        30.04R
PROVO AIRPORT  CLEAR     63  43  48 E3        30.08S
SALT LAKE CITY CLEAR     76  40  27 SE9       30.02S
VERNAL         CLEAR     60  36  40 CALM      30.14R
WENDOVER       PTCLDY    82  30  15 E5        30.05R
HEBER CITY     CLEAR     52  37  58 CALM      30.19S

$$

UTZ012>022-026-027-281100-

SOUTHERN/CENTRAL UTAH

CITY           SKY/WX    TMP DP  RH WIND       PRES   REMARKS
BLANDING       CLEAR     72  32  22 N8        30.23S
BRYCE CANYON   PTCLDY    53  31  42 W12       30.36R
CEDAR CITY     CLEAR     73  34  23 S7        30.16R
DELTA          CLEAR     64  27  24 SE7       30.07R
MILFORD        CLEAR     67  25  20 W10       30.09S
MOAB/CYNLANDS  CLEAR     72  25  17 W10       30.04R
PRICE          CLEAR     68  21  16 E5        30.18R
ST GEORGE      SUNNY     88  41  19 E7        29.93S

$$

REGIONAL REPORTS     COLORADO/ARIZONA

CITY           SKY/WX    TMP DP  RH WIND       PRES   REMARKS
CRAIG, CO      CLOUDY    43  35  73 CALM      30.25R
GRAND JUNCTION CLEAR     68  32  26 SE9       30.10R
RIFLE          CLEAR     57  39  51 NE5       30.19S
MONTROSE       CLOUDY    62  38  40 S8        30.21S
CORTEZ         CLEAR     55  38  52 S3        30.20R
PAGE, AZ       PTCLDY    84  34  16 SE3       30.02S
GRAND CANYON   HAZE      55  41  59 CALM      30.27S VSB 3/4
KINGMAN        CLEAR     79  48  33 E6        29.97S
FLAGSTAFF      CLEAR     58  46  64 SW8       30.29R

$$

REGIONAL REPORTS    NEVADA/IDAHO/WYOMING

CITY           SKY/WX    TMP DP  RH WIND       PRES   REMARKS
LAS VEGAS, NV  PTCLDY    96  44  16 S6        29.78S HX  92
ELY            CLEAR     60  22  23 S10       30.23R
ELKO           CLEAR     57  33  40 CALM      30.15R
POCATELLO, ID  CLEAR     60  41  49 NW3       30.12R
BURLEY         CLEAR     60  48  64 CALM      30.07R
EVANSTON, WY   CLOUDY    60  25  26 S9        30.29S
ROCK SPRINGS   CLOUDY    63  23  21 E6        30.25S
KEMMERER         N/A     55  27  33 NW10      30.30S

$$



USA.gov is the U.S. government's official web portal to all federal, state and local government web resources and services.